Regional Weather Roundup
Issued by NWS Wakefield, VA

Home | Current Version | Previous Version | Graphics & Text | Print | Product List | Glossary On
Versions: 1 2 3 4 5 6 7 8 9 10 11 12 13 14 15 16 17 18 19 20 21 22 23 24 25 26 27 28 29 30 31 32 33 34 35 36 37 38 39 40 41 42 43 44 45 46 47 48 49 50
000
ASUS41 KAKQ 311015
RWRAKQ

REGIONAL WEATHER ROUNDUP
NATIONAL WEATHER SERVICE WAKEFIELD VA
600 AM EDT FRI JUL 31 2015

Note: "fair" indicates few or no clouds below 12,000 feet with no
significant weather and/or obstructions to visibility. * = Denotes
station may not report precipitation (e.g., rain,snow,etc.),
thunder or fog.

VAZ042-051-052>054-056-311100-
NORTHERN VIRGINIA

CITY           SKY/WX    TMP DP  RH WIND       PRES   REMARKS
WASH NATIONAL  PTCLDY    74  62  66 N7        29.93R
DULLES         PTCLDY    64  60  87 CALM      29.94S
FORT BELVOIR   CLEAR     66  64  94 NW2       29.93R
QUANTICO       NOT AVBL
FREDERICKSBRG* CLEAR     67  67 100 CALM      29.92R
STAFFORD*      CLEAR     66  60  81 NW7       29.97R
WARRENTON      CLEAR     61  61 100 CALM      29.94R
CULPEPER*      CLEAR     62  61  97 CALM      29.96R
MANASSAS*      CLEAR     64  64 100 CALM      29.94S
LEESBURG*      CLEAR     68  63  83 NW3       29.95S
WINCHESTER     PTCLDY    68  59  73 W3        29.97R
FRONT ROYAL*   FAIR      63  59  88 S8        29.96S
LURAY*         FAIR      63  63 100 CALM      29.99S
$$

VAZ048-049-060>072-079>083-311100-
CENTRAL AND SOUTH CENTRAL VIRGINIA

CITY           SKY/WX    TMP DP  RH WIND       PRES   REMARKS
RICHMOND       MOCLDY    76  66  71 N12G18    29.92R
CHESTERFIELD*  CLOUDY    73  61  64 N3        29.94R
PETERSBURG*    CLOUDY    73  73 100 CALM      29.93R
HANOVER        CLOUDY    72  65  78 VRB3      29.94R
TAPPAHANNOCK*  PTCLDY    71  65  83 CALM      29.93R
QUINTON*       PTSUNNY   73  67  81 NW5       29.91R
CHARLOTTSVILLE CLEAR     64  61  90 CALM      29.97R
GORDONSVILLE*  FAIR      64  61  88 N3        29.95S
ORANGE*        CLEAR     64  63  94 CALM      29.97R
LOUISA*        CLEAR     66  61  82 NW3       29.94S
BUMPASS*       FAIR      66  65  97 CALM      29.94S
FARMVILLE*     MOCLDY    67  67 100 CALM      29.95R
CREWE*         FAIR     N/A N/A N/A NW3       29.94R
FORT PICKETT*  FAIR      71  68  91 NW5       29.94R
CHASE CITY*    CLOUDY    74  73  96 CALM      29.95R
CLARKSVILLE*   CLOUDY    72  68  88 NW3       29.94R
SOUTH HILL*    PTCLDY    71  70  98 N3        29.99R
LAWRENCEVILLE* PTSUNNY   72  72 100 N3        29.93R
EMPORIA*       PTCLDY    72  70  94 CALM      29.93R
$$

VAZ088>098-311100-
SOUTHEAST VIRGINIA

CITY           SKY/WX    TMP DP  RH WIND       PRES   REMARKS
NORFOLK        LGT RAIN  75  73  93 NE7       29.89S
VIRGINIA BEACH LGT RAIN  76  72  87 NE5       29.89R FOG
NORFOLK NAVAL  MOCLDY    74  73  97 NE8       29.90F FOG
WEST POINT*    CLOUDY    75  73  91 CALM      29.92R
SALUDA*        PTSUNNY   73  73  99 W5        29.90R
NEWPORT NEWS   MOCLDY    73  72  96 N5        29.90R
LANGLEY AFB    MOCLDY    75  73  95 E7        29.89S
FORT EUSTIS    MOCLDY    74  74 100 VRB2      29.88S
WILLIAMSBURG*  PTCLDY    75  73  94 NW3       29.91R
HR EXEC AP*    CLOUDY    75  72  88 NE3       29.92R
FRANKLIN*      PTCLDY    72  71  95 CALM      29.91R
WAKEFIELD      CLEAR     71  68  90 CALM      29.91R
$$

VAZ020-022-025-037-045-311100-
WEST CENTRAL AND SOUTHWEST VIRGINIA

CITY           SKY/WX    TMP DP  RH WIND       PRES   REMARKS
STAUNTON*      PTCLDY    59  57  92 CALM      30.04R FOG
WAYNESBORO*    FAIR      59  58  96 CALM      30.02S
HOT SPRINGS VA CLEAR     60  56  84 NW3       30.12R
LYNCHBURG      PTCLDY    69  58  67 N5        29.99R
DANVILLE       MOCLDY    71  62  73 NW5       29.97R
SOUTH BOSTON*  CLOUDY    70  65  84 NW5       29.96R
MARTINSVILLE   PTCLDY    64  59  84 CALM      30.02S
ROANOKE        CLEAR     65  58  78 W7        30.04R
BLACKSBURG     CLEAR     58  58 100 CALM      30.11R
DUBLIN*          N/A     64  58  78 CALM      30.10R
MARION*        CLEAR     59  58  95 CALM      30.14R
HILLSVILLE*    CLEAR     64  57  78 NW7       30.09S
RICHLANDS*     FAIR      61  60  94 CALM      30.12S
WISE*          CLEAR     63  61  94 CALM      30.13F
ABINGDON*      CLEAR     61  59  92 CALM      30.09S
$$

MDZ021>025-VAZ099-100-311100-
SOUTHERN MARYLAND AND THE DELMARVA PENINSULA

CITY           SKY/WX    TMP DP  RH WIND       PRES   REMARKS
PATUXENT RIVER PTCLDY    73  66  78 NW8       29.90R
BAY BRIDGE APT   N/A     73  64  73 N3        29.91S
LEONARDTOWN    CLEAR     68  64  88 CALM      29.93R
DOVER          CLEAR     68  64  88 N6        29.87S
GEORGETOWN     CLEAR     72  69  90 N5        29.89S
EASTON         PTCLDY    70  70 100 N6        29.94R
CAMBRIDGE      CLEAR     70  66  88 CALM      29.89S
SALISBURY      PTCLDY    74  71  91 N6        29.89R
OCEAN CITY     PTCLDY    73  71  93 N6        29.88R
WALLOPS ISLAND MOCLDY    75  75 100 NW5       29.89R
ACCOMACK*      CLOUDY    73  61  64 W5        29.89R HAZE
$$

NCZ012>017-030>032-311100-
NORTH CENTRAL AND EASTERN NORTH CAROLINA

CITY           SKY/WX    TMP DP  RH WIND       PRES   REMARKS
ROANOKE RAPIDS FAIR      73  72  94 N8        29.91R
RALEIGH        PTCLDY    74  63  68 CALM      29.94R
ELIZABETH CITY CLOUDY    78  76  93 CALM      29.87S
AHOSKIE*       CLEAR     75  68  80 N5        29.91R
EDENTON*         N/A     78  74  88 CALM      29.88R
CURRITUCK*     NOT AVBL
KILL DEVIL HLS PTCLDY    77  73  87 CALM      29.86S
MANTEO         PTCLDY    78  75  91 CALM      29.88R
CAPE HATTERAS  CLEAR     77  74  90 CALM      29.86F
TARBORO*         N/A     76  73  91 N6        29.90R
GOLDSBORO      PTCLDY    78  75  91 N5        29.87R
WASHINGTON     HVY RAIN  76  75  95 CALM      29.88R
GREENVILLE     PTCLDY    77  77 100 CALM      29.90R
NEW BERN       CLOUDY    76  73  91 CALM      29.89R
WILMINGTON     CLOUDY    77  75  93 CALM      29.87S
$$

VAZ048-311100-
ELSEWHERE

CITY           SKY/WX    TMP DP  RH WIND       PRES   REMARKS
HARRISBURG PA  PTCLDY    67  61  81 CALM      29.91R
BALTIMORE      PTCLDY    69  61  75 NW3       29.91S
ANNAPOLIS      CLEAR     75  65  70 N7        29.90S
ANDREWS AFB    CLEAR     70  62  76 NW7       29.92R
PHILADELPHIA   PTCLDY    70  60  70 CALM      29.89R
HENDERSON NC   CLEAR     71  66  84 N5        29.94S
GREENSBORO     PTCLDY    71  59  65 N3        29.98R
ROCKY MOUNT    CLEAR     76  74  93 N8        29.90R
$$

VAZ100-311100-
MARINE

STATION/POSITION TIME  TEMP    WIND        PRES    WAVE   SWELL
                       AIR SEA DIR/SP/G            HT/PER HT/PER
                 (UTC) (F)     (DEG/KT/KT) (MB)    (FT/S) (FT/S)
BRANDYWINE LGT   0900   79 76  350/ 18/ 22 1011.8F
CAPE MAY NJ      0900   78 78  330/  7/ 14 1011.3S
LEWES DE         0900   78 71  330/ 11/ 15 1011.7S
15NM E FENWICK I 0950   78 79  320/ 14/ 16 1011.2F   3/ 6   2/10
OCEAN-CITY-INLET 0900   77 79  340/  8/ 10 1010.7F
WACHAPREAGUE VA  0900   74 85  310/  2/  5 1011.9F
GOOSES REEF MD   1000   79 82  360/ 14/ 16 1013.5R
COVE POINT MD    0900   79     350/ 15/ 18 1012.9S
SOLOMONS ISLAND  0900      82                N/A
BISHOPS HEAD MD  0900   77 83  330/  3/  5 1011.2R
PINEY POINT MD   0900           30/ 10/ 12   N/A
POTOMAC MD       1000   78 83   10/ 12/ 14 1011.1R   1
CAMBRIDGE MD     0900   78 83   10/  7/  8 1011.3S
LEWISETTA VA     0900   78 83  350/  7/ 10 1011.9R
RAPPAHANNOCK LGT 0900           60/  5/  5 1012.3S
STINGRAY PT      1000   80 83  330/  6/ 10 1012.4R   0
YORK RVR RNG VA  0900   77     110/  7/  8 1011.4F
YORKTOWN VA      0900   78 83   90/  2/  3 1011.9S
JAMESTOWN VA     1000   75 85  330/  4/  4   N/A
DOMINION TERM VA 0900   75      60/  7/ 11 1012.0F
KIPTOPEKE VA     0900      82  100/  4/  5   N/A
CHES BAY BRIDGE  0900   75 80   10/  8/ 11 1011.8R
CAPE HENRY VA    0900   75      20/ 14/ 17   N/A
CHESAPEAKE LGHT  0900   76      20/ 14/ 15 1012.2F
WILLOUBY STN VA  0900   76      50/ 10/ 11 1013.0F
CAPE HENRY BUOY  0928      80                N/A     4/ 6
1ST LANDING BUOY 1000      81              1011.9S   2/ 4
CAPE CHARLES BUO 0926      76                N/A     3/ 9   2/ 9
OFFSHORE WE BUOY 0911      82                N/A     4/ 6   3/ 6
64NM E OF VA BCH 0950   81 81  210/ 10/ 12 1011.1S   4/ 6   3/ 6
DUCK PIER NC     0900   80 62  230/  5/  7 1010.4F
44100 DUCK FRF   0924      80                N/A     3/ 9
44056 DUCK FRF   0911      69                N/A     3/10
OREGON INLET NC  0900   82 84  190/  5/  7 1011.1F
HATTERAS NC      0900   80 83     CALM     1011.0R
DIAMOND SHLS NC  0950   82 85   CALM  /  2 1010.8F   4/ 7   3/ 7
CAPE LOOKOUT NC  1000   79     350/  6/  7 1011.0R
$$


USA.gov is the U.S. government's official web portal to all federal, state and local government web resources and services.